TO-108
1 44881U 19093C   25150.86084171  .00000978  00000-0  11911-3 0  9995
2 44881  97.7926 226.7137 0012332 262.6065  97.3749 14.85580029294638
FloripaSat 1
1 44885U 19093G   25150.79829533  .00006271  00000-0  53056-3 0  9998
2 44885  97.8175 238.3783 0008871 229.0614 130.9841 14.98367285295285
RS-44
1 44909U 19096E   25150.62503668  .00000035  00000-0  10120-3 0  9995
2 44909  82.5225 233.8910 0216627 319.0931  39.4085 12.79740703253412
UPMSat 2
1 46276U 20061E   25150.47570576  .00076411  00000-0  70669-3 0  9998
2 46276  97.2437 224.5280 0001855 162.6334 197.4991 15.67303300263881
SALSAT
1 46495U 20068K   25150.89008089  .00007459  00000-0  32366-3 0  9997
2 46495  97.8605 128.4728 0011041 186.8401 173.2686 15.22602684257050
CubeSX-Sirius-HSE
1 47951U 21022V   25150.80896360  .00907252  41851-3  15044-2 0  9999
2 47951  97.4125  64.4857 0005852 166.3883 193.7556 16.03097775232306
CubeSX-HSE
1 47952U 21022W   25150.63140412  .00855401  36579-3  14331-2 0  9998
2 47952  97.4101  64.5629 0007029 166.5756 193.5712 16.02892980232298
GRBAlpha
1 47959U 21022AD  25150.82938442  .00671269  20448-3  13650-2 0  9993
2 47959  97.4070  64.8046 0005616 159.6794 200.4708 15.99502494231140
TUBIN
1 48900U 21059X   25150.78237296  .00044762  00000-0  56093-3 0  9994
2 48900  97.6751 319.2186 0002852 248.5191 111.5761 15.59641688218517
LEDSAT
1 49069U 21073D   25150.74951146  .00063622  00000-0  80093-3 0  9993
2 49069  97.3889 231.8854 0010904 118.9701 241.2650 15.59372828209906
CUTE
1 49263U 21088D   25150.20090715  .00019380  00000-0  39143-3 0  9994
2 49263  97.4509 226.1582 0006482 276.1281  83.9230 15.46519446202827
TeikyoSat 4
1 49396U 21102B   25150.59538039  .00002688  00000-0  18033-3 0  9994
2 49396  97.4097 189.3845 0013070 161.4153 198.7556 15.07593737195046
Z-Sat
1 49399U 21102E   25150.83944247  .00004392  00000-0  24220-3 0  9995
2 49399  97.3801 192.6558 0019557 134.4610 225.8225 15.14321063195508
KOSEN 1
1 49402U 21102H   25150.79755207  .00007473  00000-0  34711-3 0  9990
2 49402  97.3704 195.9563 0017694 112.0457 248.2659 15.20147404195803
HO-113
1 50466U 21131B   25150.83016717  .00000585  00000-0  19643-3 0  9999
2 50466  98.5099 240.2311 0004826 151.6649 208.4803 14.40801481180047
IRIS-A
1 51044U 22002BN  25150.73022017  .01016530  60454-3  11750-2 0  9999
2 51044  97.3086 231.6262 0008477 237.6936 122.3527 16.08988849188339
Foresail-1
1 52766U 22057AL  25150.81810940  .00299189  35697-4  92455-3 0  9996
2 52766  97.6025 301.6838 0006357 256.3659 103.6907 15.91680065168342
SNUGLITE 2
1 52899U 22065F   25150.64282492  .00001156  00000-0  23365-3 0  9993
2 52899  98.1676 292.7139 0008559 138.0972 222.0886 14.63187403155031
UmKA 1 (RS40S)
1 57172U 23091G   25150.83366571  .00006369  00000-0  34145-3 0  9993
2 57172  97.5579 206.2669 0014525  15.1715 344.9949 15.15243485106001
CubeBel-2 (EU11S)
1 57175U 23091K   25150.88862948  .00010316  00000-0  49333-3 0  9992
2 57175  97.5580 207.4095 0012428  24.7034 335.4793 15.19119545106085
VERONIKA
1 58261U 23174F   25150.82790448  .00133381  00000-0  12083-2 0  9999
2 58261  97.4121 236.4357 0003670 119.7640 240.3986 15.67624717 87151
ENSO
1 58470U 23185J   25150.85821001  .00054356  00000-0  81408-3 0  9998
2 58470  97.3734 225.6725 0008505 121.9137 238.2945 15.54755599 83526
EIRSAT-1
1 58472U 23185L   25150.87145951  .00106654  00000-0  10572-2 0  9997
2 58472  97.3693 227.4262 0006380 132.5077 227.6723 15.65445166 83645
SONATE-2
1 59112U 24043Q   25150.85063856  .00017441  00000-0  50733-3 0  9993
2 59112  97.5131 281.8360 0012222 145.3855 214.8186 15.35431487 68841
MO-122
1 60209U 24125G   25150.54136711  .00018070  00000-0  51841-3 0  9990
2 60209  97.2798   2.2741 0019418 168.8054 191.3626 15.35735430 50416
GRBBeta
1 60237U 24128C   25150.28799363  .00005597  00000-0  42277-3 0  9996
2 60237  61.9910 115.4397 0051254  55.1393 305.4502 15.02524812 48651
Curium One
1 60242U 24128H   25150.27479931  .00009891  00000-0  68879-3 0  9994
2 60242  61.9807 113.9273 0051234  51.0579 309.5063 15.04922782 48687
ROBUSTA-3A
1 60243U 24128J   25150.27426521  .00009061  00000-0  64115-3 0  9990
2 60243  61.9878 114.7227 0049937  48.7637 311.7741 15.04460954 48674
CatSat
1 60246U 24125J   25150.55610669  .00011127  00000-0  37272-3 0  9999
2 60246  97.2593   1.6160 0044243 128.7883 231.7323 15.30135738 48451
HYPERVIEW-1G (RS66S)
1 61772U 24199AP  25150.89964935  .00019487  00000-0  57258-3 0  9993
2 61772  97.3542  19.7797 0012566 220.5537 139.4771 15.35082346 75471
AO-123
1 61781U 24199AY  25150.88979194  .00006843  00000-0  25075-3 0  9999
2 61781  97.3555  18.7583 0014479 227.6948 132.3065 15.28228561 75400
ZIMSAT 2
1 61783U 24199BA  25150.85355141  .00036587  00000-0  91515-3 0  9998
2 61783  97.3521  20.2753 0012578 216.6984 143.3402 15.39944958 78652
HADES-R (SO-124)
1 62690U 25009CK  25150.46482105  .00040324  00000-0  14538-2 0  9998
2 62690  97.4091 231.3148 0004758 131.6386 228.5262 15.28412400 20601
HYDRA-T
1 62692U 25009CM  25150.19007073  .00043561  00000-0  15596-2 0  9998
2 62692  97.4092 231.0707 0004362 131.0922 229.0695 15.28624345 20567
JINJUSat 1B
1 63210U 25052A   25150.19777074  .00014270  00000-0  65711-3 0  9998
2 63210  97.4427  44.4535 0004734  24.4610 335.6849 15.20400162 11671
NUSHSAT 1
1 63211U 25052B   25150.58898414  .00013639  00000-0  62445-3 0  9993
2 63211  97.4415  44.8388 0004896  28.7301 331.4203 15.20607264 11739
TEVEL2-4
1 63213U 25052D   25150.60066679  .00012493  00000-0  57712-3 0  9996
2 63213  97.4334  44.7428 0004619  46.1865 313.9751 15.20321098 11738
TEVEL2-5
1 63214U 25052E   25150.66695676  .00012061  00000-0  55756-3 0  9995
2 63214  97.4330  44.8071 0004597  45.7240 314.4372 15.20306120 11742
TEVEL2-6
1 63215U 25052F   25150.60301041  .00012001  00000-0  55548-3 0  9993
2 63215  97.4332  44.7407 0004698  46.8186 313.3441 15.20264029 11735
TEVEL2-1
1 63217U 25052H   25150.67850257  .00011207  00000-0  52209-3 0  9998
2 63217  97.4310  44.7687 0005262  55.9466 304.2268 15.20055262 11747
TEVEL2-2
1 63218U 25052J   25150.61297382  .00011452  00000-0  53345-3 0  9991
2 63218  97.4309  44.7042 0005289  56.3600 303.8139 15.20052304 11730
TEVEL2-3
1 63219U 25052K   25150.41557273  .00013409  00000-0  62404-3 0  9998
2 63219  97.4310  44.5093 0005313  56.9786 303.1959 15.20044487 11709
TEVEL2-8
1 63237U 25052AD  25150.60480028  .00011376  00000-0  54816-3 0  9991
2 63237  97.4372  44.6251 0009885  57.9415 302.2778 15.18851732 11729
TEVEL2-9
1 63238U 25052AE  25150.60676565  .00011013  00000-0  53162-3 0  9996
2 63238  97.4374  44.6241 0009988  58.0017 302.2186 15.18796354 11726
TEVEL2-7
1 63239U 25052AF  25150.60849182  .00011094  00000-0  53601-3 0  9991
2 63239  97.4374  44.6209 0010010  58.2678 301.9531 15.18762343 11725
HYDRA-W
1 63490U 25052BL  25150.62449735  .00025054  00000-0  10737-2 0  9995
2 63490  97.4323  44.8555 0013921  54.8419 305.4119 15.22661679 11741
HADES-ICM
1 63492U 25052BN  25150.17664815  .00030625  00000-0  13267-2 0  9996
2 63492  97.4336  44.3894 0014190  59.1229 301.1401 15.22248264 11674
